• In Uzbekistan
  • List of Countries
  • For 7 days
  • Water Temperature
  • Satellite Maps
  • Weather Map
  • Weather Widgets
  • user-avatar
    Login

    Hourly Weather Kunming

    Today, 20 June, Thursday

    Time Temperature Precipitation Wind Pressure Humidity
    00:00 +19°C° 0 mm 1 mps 589 mmHg 88%
    01:00 +19°C° 0 mm 1 mps 589 mmHg 90%
    02:00 +19°C° 0 mm 1 mps 588 mmHg 92%
    03:00 +18°C° 0 mm 1 mps 588 mmHg 93%
    04:00 +18°C° 0 mm 1 mps 588 mmHg 94%
    05:00 +19°C° 0 mm 1 mps 588 mmHg 92%
    06:00 +18°C° 0 mm 2 mps 589 mmHg 90%
    07:00 +19°C° 0 mm 2 mps 589 mmHg 88%
    08:00 +20°C° 0 mm 2 mps 590 mmHg 81%
    09:00 +22°C° 0 mm 3 mps 590 mmHg 74%
    10:00 +24°C° 0 mm 3 mps 591 mmHg 67%
    11:00 +26°C° 0 mm 4 mps 591 mmHg 61%
    12:00 +27°C° 0 mm 4 mps 591 mmHg 55%
    13:00 +29°C° 0 mm 4 mps 591 mmHg 50%
    14:00 +29°C° 0 mm 4 mps 591 mmHg 50%
    15:00 +29°C° 0 mm 5 mps 590 mmHg 50%
    16:00 +29°C° 0 mm 5 mps 590 mmHg 50%
    17:00 +27°C° 0 mm 4 mps 589 mmHg 57%
    18:00 +25°C° 0 mm 3 mps 588 mmHg 64%
    19:00 +22°C° 0 mm 3 mps 588 mmHg 72%
    20:00 +23°C° 0 mm 2 mps 588 mmHg 76%
    21:00 +21°C° 0 mm 2 mps 588 mmHg 79%
    22:00 +20°C° 0 mm 2 mps 589 mmHg 83%
    23:00 +19°C° 0 mm 2 mps 588 mmHg 86%

    Tomorrow, 21 June, Friday

    Time Temperature Precipitation Wind Pressure Humidity
    00:00 +20°C° 0 mm 1 mps 588 mmHg 89%
    01:00 +19°C° 0 mm 1 mps 588 mmHg 92%
    02:00 +19°C° 0 mm 1 mps 588 mmHg 93%
    03:00 +19°C° 0 mm 1 mps 587 mmHg 95%
    04:00 +18°C° 0 mm 1 mps 587 mmHg 96%
    05:00 +19°C° 0 mm 1 mps 588 mmHg 94%
    06:00 +18°C° 0 mm 2 mps 588 mmHg 91%
    07:00 +19°C° 0 mm 2 mps 589 mmHg 89%
    08:00 +21°C° 0 mm 2 mps 589 mmHg 81%
    09:00 +22°C° 0 mm 3 mps 590 mmHg 72%
    10:00 +25°C° 0 mm 4 mps 591 mmHg 64%
    11:00 +26°C° 0 mm 4 mps 590 mmHg 62%
    12:00 +26°C° 0 mm 4 mps 590 mmHg 59%
    13:00 +27°C° 0 mm 4 mps 590 mmHg 56%
    14:00 +27°C° 0 mm 4 mps 589 mmHg 55%
    15:00 +28°C° 0 mm 4 mps 589 mmHg 55%
    16:00 +28°C° 0 mm 4 mps 589 mmHg 54%
    17:00 +26°C° 0 mm 3 mps 588 mmHg 60%
    18:00 +25°C° 0 mm 3 mps 588 mmHg 66%
    19:00 +24°C° 0 mm 2 mps 587 mmHg 72%
    20:00 +23°C° 0 mm 2 mps 588 mmHg 77%
    21:00 +21°C° 0 mm 2 mps 588 mmHg 81%
    22:00 +20°C° 0 mm 2 mps 588 mmHg 86%
    23:00 +20°C° 0 mm 1 mps 588 mmHg 88%

    Day after tomorrow, 22 June, Saturday

    Time Temperature Precipitation Wind Pressure Humidity
    00:00 +20°C° 0 mm 1 mps 588 mmHg 90%
    01:00 +20°C° 0 mm 1 mps 587 mmHg 92%
    02:00 +19°C° 0 mm 1 mps 587 mmHg 93%
    03:00 +19°C° 0 mm 1 mps 587 mmHg 94%
    04:00 +19°C° 0 mm 1 mps 587 mmHg 95%
    05:00 +20°C° 0 mm 1 mps 587 mmHg 93%
    06:00 +20°C° 0 mm 1 mps 588 mmHg 90%
    07:00 +21°C° 0 mm 1 mps 588 mmHg 88%
    08:00 +21°C° 0.1 mm 2 mps 589 mmHg 80%
    09:00 +24°C° 0.1 mm 2 mps 590 mmHg 72%
    10:00 +25°C° 0.1 mm 3 mps 590 mmHg 64%
    11:00 +26°C° 0.1 mm 3 mps 590 mmHg 62%
    12:00 +26°C° 0.1 mm 3 mps 590 mmHg 61%
    13:00 +26°C° 0.1 mm 3 mps 589 mmHg 59%
    14:00 +27°C° 0.1 mm 3 mps 589 mmHg 58%
    15:00 +27°C° 0.1 mm 3 mps 589 mmHg 58%
    16:00 +27°C° 0.1 mm 3 mps 588 mmHg 57%
    17:00 +26°C° 0.1 mm 2 mps 588 mmHg 63%
    18:00 +24°C° 0.1 mm 2 mps 588 mmHg 68%
    19:00 +23°C° 0.1 mm 1 mps 588 mmHg 73%
    20:00 +22°C° 1.1 mm 1 mps 588 mmHg 77%
    21:00 +22°C° 1.1 mm 1 mps 588 mmHg 82%
    22:00 +21°C° 1.1 mm 1 mps 589 mmHg 86%
    23:00 +21°C° 0.1 mm 1 mps 588 mmHg 86%

    23 June, Sunday

    Time Temperature Precipitation Wind Pressure Humidity
    00:00 +21°C° 0.1 mm 1 mps 588 mmHg 86%
    01:00 +20°C° 0.1 mm 1 mps 588 mmHg 87%
    02:00 +20°C° 0.7 mm 1 mps 588 mmHg 88%
    03:00 +20°C° 0.7 mm 1 mps 587 mmHg 89%
    04:00 +19°C° 0.7 mm 1 mps 587 mmHg 90%
    05:00 +20°C° 0.6 mm 1 mps 588 mmHg 89%
    06:00 +20°C° 0.6 mm 1 mps 588 mmHg 88%
    07:00 +21°C° 0.6 mm 1 mps 589 mmHg 87%
    08:00 +22°C° 1.3 mm 1 mps 589 mmHg 82%
    09:00 +24°C° 1.3 mm 1 mps 590 mmHg 77%
    10:00 +25°C° 1.3 mm 1 mps 590 mmHg 72%
    11:00 +25°C° 2.8 mm 1 mps 590 mmHg 74%
    12:00 +24°C° 2.8 mm 1 mps 589 mmHg 77%
    13:00 +24°C° 2.8 mm 1 mps 588 mmHg 79%
    14:00 +23°C° 1.5 mm 1 mps 588 mmHg 81%
    15:00 +23°C° 1.5 mm 1 mps 587 mmHg 83%
    16:00 +22°C° 1.5 mm 1 mps 587 mmHg 85%
    17:00 +22°C° 1.2 mm 1 mps 587 mmHg 87%
    18:00 +21°C° 1.2 mm 1 mps 587 mmHg 89%
    19:00 +20°C° 1.2 mm 1 mps 587 mmHg 91%
    20:00 +20°C° 1.6 mm 1 mps 587 mmHg 92%
    21:00 +20°C° 1.6 mm 1 mps 588 mmHg 93%
    22:00 +19°C° 1.6 mm 1 mps 588 mmHg 94%
    23:00 +19°C° 0.8 mm 1 mps 588 mmHg 94%

    24 June, Monday

    Time Temperature Precipitation Wind Pressure Humidity
    00:00 +19°C° 0.8 mm 1 mps 588 mmHg 95%
    01:00 +19°C° 0.8 mm 1 mps 588 mmHg 95%
    02:00 +19°C° 0.6 mm 1 mps 587 mmHg 95%
    03:00 +19°C° 0.6 mm 1 mps 587 mmHg 94%
    04:00 +19°C° 0.6 mm 1 mps 587 mmHg 94%
    05:00 +19°C° 0.7 mm 1 mps 587 mmHg 94%
    06:00 +19°C° 0.7 mm 1 mps 588 mmHg 94%
    07:00 +20°C° 0.7 mm 1 mps 588 mmHg 93%
    08:00 +20°C° 1.5 mm 1 mps 588 mmHg 93%
    09:00 +20°C° 1.5 mm 1 mps 589 mmHg 92%
    10:00 +20°C° 1.5 mm 1 mps 589 mmHg 91%
    11:00 +20°C° 1.5 mm 1 mps 589 mmHg 92%
    12:00 +20°C° 1.5 mm 1 mps 588 mmHg 92%
    13:00 +20°C° 1.5 mm 1 mps 588 mmHg 93%
    14:00 +20°C° 0.7 mm 1 mps 588 mmHg 92%
    15:00 +20°C° 0.7 mm 1 mps 588 mmHg 92%
    16:00 +20°C° 0.7 mm 1 mps 587 mmHg 91%
    17:00 +20°C° 0.4 mm 1 mps 587 mmHg 92%
    18:00 +20°C° 0.4 mm 1 mps 588 mmHg 93%
    19:00 +19°C° 0.4 mm 1 mps 588 mmHg 94%
    20:00 +19°C° 0.7 mm 1 mps 588 mmHg 94%
    21:00 +19°C° 0.7 mm 1 mps 588 mmHg 95%
    22:00 +19°C° 0.7 mm 1 mps 589 mmHg 95%
    23:00 +19°C° 0.9 mm 1 mps 588 mmHg 95%

    25 June, Tuesday

    Time Temperature Precipitation Wind Pressure Humidity
    00:00 +19°C° 0.9 mm 1 mps 588 mmHg 95%
    01:00 +19°C° 0.9 mm 1 mps 588 mmHg 96%
    02:00 +19°C° 1 mm 1 mps 588 mmHg 96%
    03:00 +19°C° 1 mm 1 mps 587 mmHg 96%
    04:00 +18°C° 1 mm 1 mps 587 mmHg 96%
    05:00 +19°C° 1.2 mm 1 mps 587 mmHg 96%
    06:00 +19°C° 1.2 mm 1 mps 588 mmHg 96%
    07:00 +19°C° 1.2 mm 1 mps 588 mmHg 96%
    08:00 +19°C° 0.9 mm 1 mps 588 mmHg 93%
    09:00 +20°C° 0.9 mm 1 mps 589 mmHg 91%
    10:00 +21°C° 0.9 mm 1 mps 589 mmHg 88%
    11:00 +21°C° 1.4 mm 1 mps 589 mmHg 86%
    12:00 +22°C° 1.4 mm 1 mps 589 mmHg 83%
    13:00 +23°C° 1.4 mm 1 mps 589 mmHg 81%
    14:00 +23°C° 1.4 mm 2 mps 589 mmHg 80%
    15:00 +23°C° 1.4 mm 2 mps 588 mmHg 80%
    16:00 +23°C° 1.4 mm 2 mps 588 mmHg 80%
    17:00 +21°C° 1 mm 2 mps 588 mmHg 83%
    18:00 +21°C° 1 mm 1 mps 588 mmHg 87%
    19:00 +20°C° 1 mm 1 mps 588 mmHg 90%
    20:00 +19°C° 0.3 mm 1 mps 588 mmHg 91%
    21:00 +19°C° 0.3 mm 1 mps 588 mmHg 92%
    22:00 +19°C° 0.3 mm 1 mps 588 mmHg 93%
    23:00 +18°C° 0.1 mm 1 mps 588 mmHg 94%
    Show more